Location: *
(46.1866°S, 178.5290°W)
Time: 11:45:02
(UTC+00:00)

Lacrosse 5 rocket - Pass Details

Date: 19 May 2021
Orbit: 458 x 636 km, 57.0° (Epoch: 12 June)

Event Time Altitude Azimuth Distance (km) Brightness Sun altitude
Rises 07:09:34 0° 326° (NNW) 2,935 5.5 -27.7°
Reaches altitude 10° 07:11:55 10° 331° (NNW) 2,031 4.5 -28.1°
Enters shadow 07:13:48 23° 340° (NNW) 1,353 3.4 -28.4°
